Weather History for Oakland, CA

Change the Weather History Date:

Thursday, September 25, 2014

  Actual Average Record
Temperature  
Mean Temperature 65 °F 64 °F  
Max Temperature 72 °F 74 °F 94 °F (2010)
Min Temperature 58 °F 54 °F 44 °F (1948)
Degree Days  
Heating Degree Days 0 3  
Month to date heating degree days 1 49  
Since 1 July heating degree days 26 189  
Cooling Degree Days 0 1  
Month to date cooling degree days 66 42  
Year to date cooling degree days 262 122  
Growing Degree Days 14 (Base 50)    
Moisture  
Dew Point 57 °F    
Average Humidity 79    
Maximum Humidity 100    
Minimum Humidity 57    
Precipitation  
Precipitation 0.43 in 0.01 in 0.43 in (2014)
Month to date precipitation 0.44 0.14  
Year to date precipitation 8.43 13.42  
Since 1 July precipitation 0.45 0.20  
Sea Level Pressure  
Sea Level Pressure 29.96 in    
Wind  
Wind Speed 6 mph (WNW)    
Max Wind Speed 21 mph    
Max Gust Speed 24 mph    
Visibility 8 miles    
Events Rain    
T = Trace of Precipitation, MM = Missing Value Source: NWS Daily Summary

Daily Weather History Graph

Daily Weather History Graph

Search for Another Location

Airport:

Trip Planner

Search our weather history database for the weather conditions in past years. The results will help you decide how hot, cold, wet, or windy it might be!

Date:

Astronomy

Sep. 25, 2014 Rise Set
Actual Time 6:59 AM PDT 7:01 PM PDT
Civil Twilight 6:33 AM PDT 7:27 PM PDT
Nautical Twilight 6:02 AM PDT 7:57 PM PDT
Astronomical Twilight 5:31 AM PDT 8:28 PM PDT
Moon 8:20 AM PDT (9/25) 7:50 PM PDT (9/25)
Length of Visible Light 12h 53m
Length of Day
12h 01m
New Moon, 2% of the Moon is Illuminated
Sep 25
New Moon
Oct 1
First Quarter
Oct 8
Full
Oct 15
Last Quarter
Oct 23
New

Hourly Weather History & Observations

Time (PDT) Temp. Dew Point Humidity Pressure Visibility Wind Dir Wind Speed Gust Speed Precip Events Conditions
12:53 AM 64.9 °F 59.0 °F 81% 29.91 in 10.0 mi WNW 16.1 mph - N/A   Overcast
1:06 AM 64.4 °F 57.2 °F 77% 29.91 in 10.0 mi WNW 19.6 mph - N/A   Overcast
1:46 AM 62.6 °F 57.2 °F 82% 29.92 in 6.0 mi NW 10.4 mph - 0.00 in Rain Light Rain
1:53 AM 61.0 °F 57.9 °F 90% 29.91 in 5.0 mi NNW 6.9 mph - 0.00 in Rain Light Rain
2:06 AM 60.8 °F 57.2 °F 88% 29.92 in 4.0 mi NNW 6.9 mph - 0.00 in Rain Light Rain
2:21 AM 60.8 °F 57.2 °F 88% 29.91 in 10.0 mi NNE 4.6 mph - 0.00 in   Overcast
2:53 AM 61.0 °F 57.9 °F 90% 29.92 in 9.0 mi WNW 4.6 mph - 0.01 in Rain Light Rain
3:12 AM 62.6 °F 57.2 °F 82% 29.92 in 5.0 mi West 13.8 mph - 0.00 in Rain Light Rain
3:41 AM 60.8 °F 57.2 °F 88% 29.92 in 4.0 mi WNW 8.1 mph - 0.01 in Rain Light Rain
3:53 AM 61.0 °F 57.9 °F 90% 29.92 in 4.0 mi West 5.8 mph - 0.02 in Rain Light Rain
4:14 AM 60.8 °F 57.2 °F 88% 29.93 in 2.0 mi West 11.5 mph - 0.04 in Rain Rain
4:30 AM 60.8 °F 57.2 °F 88% 29.93 in 2.5 mi West 11.5 mph - 0.08 in Rain Rain
4:47 AM 60.8 °F 57.2 °F 88% 29.93 in 4.0 mi NNW 5.8 mph - 0.10 in Rain Light Rain
4:53 AM 60.1 °F 57.9 °F 93% 29.93 in 4.0 mi NNW 9.2 mph - 0.10 in Rain Light Rain
4:56 AM 59.0 °F 57.2 °F 94% 29.93 in 3.0 mi NNW 8.1 mph - 0.01 in Rain Light Rain
5:12 AM 59.0 °F 57.2 °F 94% 29.95 in 2.5 mi NNW 6.9 mph - 0.05 in Rain Heavy Rain
5:31 AM 59.0 °F 57.2 °F 94% 29.94 in 3.0 mi Calm Calm - 0.10 in Rain Heavy Rain
5:38 AM 59.0 °F 57.2 °F 94% 29.93 in 2.5 mi Calm Calm - 0.13 in Rain Rain
5:53 AM 59.0 °F 57.0 °F 93% 29.93 in 4.0 mi Calm Calm - 0.16 in Rain Rain
6:53 AM 57.9 °F 57.0 °F 97% 29.96 in 6.0 mi Calm Calm - 0.12 in Rain Light Rain
7:46 AM 59.0 °F 57.2 °F 94% 29.98 in 10.0 mi Calm Calm - 0.02 in   Overcast
7:53 AM 59.0 °F 57.0 °F 93% 29.98 in 10.0 mi Calm Calm - 0.02 in   Overcast
8:49 AM 60.8 °F 57.2 °F 88% 29.99 in 10.0 mi ENE 4.6 mph - N/A   Overcast
8:53 AM 60.1 °F 57.0 °F 90% 29.99 in 10.0 mi East 3.5 mph - N/A   Overcast
9:53 AM 63.0 °F 57.9 °F 84% 30.01 in 10.0 mi SE 5.8 mph - N/A   Overcast
10:53 AM 64.9 °F 57.9 °F 78% 30.01 in 10.0 mi SSE 8.1 mph - N/A   Mostly Cloudy
11:11 AM 64.4 °F 57.2 °F 77% 30.02 in 10.0 mi South 8.1 mph - N/A   Mostly Cloudy
11:53 AM 66.9 °F 57.9 °F 73% 30.02 in 10.0 mi South 8.1 mph - N/A   Partly Cloudy
12:53 PM 68.0 °F 57.0 °F 68% 30.02 in 10.0 mi SSW 5.8 mph - N/A   Partly Cloudy
1:53 PM 69.1 °F 57.0 °F 65% 30.01 in 10.0 mi SW 5.8 mph - N/A   Partly Cloudy
2:53 PM 70.0 °F 55.9 °F 61% 30.00 in 10.0 mi West 4.6 mph - N/A   Partly Cloudy
3:53 PM 71.1 °F 55.9 °F 59% 29.99 in 10.0 mi West 11.5 mph - N/A   Partly Cloudy
4:53 PM 71.1 °F 55.9 °F 59% 29.99 in 10.0 mi West 12.7 mph - N/A   Partly Cloudy
5:53 PM 69.1 °F 57.0 °F 65% 29.98 in 10.0 mi WNW 10.4 mph - N/A   Partly Cloudy
6:53 PM 66.9 °F 57.0 °F 70% 29.98 in 10.0 mi NW 6.9 mph - N/A   Partly Cloudy
7:53 PM 64.9 °F 57.9 °F 78% 29.99 in 10.0 mi WNW 6.9 mph - N/A   Scattered Clouds
8:53 PM 64.9 °F 57.9 °F 78% 30.00 in 10.0 mi West 8.1 mph - N/A   Scattered Clouds
9:53 PM 64.9 °F 57.9 °F 78% 30.00 in 10.0 mi West 8.1 mph - N/A   Partly Cloudy
10:53 PM 64.9 °F 57.9 °F 78% 30.00 in 10.0 mi West 6.9 mph - N/A   Partly Cloudy
11:53 PM 64.0 °F 57.9 °F 80% 30.00 in 10.0 mi WNW 8.1 mph - N/A   Scattered Clouds